Wind_Speed
82 79 76 74 74 74 75 77 78 77 74 73 70 67 65 63 63 65 67 66 62 59 58 55 53 52 52 50 48 46 44 42 40 37 35 33 32 31 31 33 35 35 35
86 86 84 82 80 78 78 78 79 80 79 77 75 73 70 68 65 65 68 69 66 64 62 59 57 56 55 53 51 49 47 45 42 40 39 36 35 34 33 32 32 34 36
75 78 79 80 80 79 78 80 82 82 83 82 80 78 75 73 70 66 65 68 67 65 64 62 61 58 57 54 53 52 49 46 43 42 41 40 38 37 36 35 33 32 33
58 59 62 65 69 72 73 75 80 84 85 85 84 82 80 78 76 74 68 65 65 64 64 63 62 60 58 56 55 55 52 47 45 44 43 42 41 40 38 37 36 35 34
56 56 56 57 59 62 64 67 72 81 86 88 87 86 84 83 80 78 76 72 67 63 63 63 63 62 60 59 57 57 54 50 47 47 46 44 43 43 41 38 37 36 35
61 60 59 57 57 56 55 56 62 72 83 89 90 89 86 85 83 80 79 77 73 68 64 63 63 63 62 61 60 59 57 54 51 49 47 45 44 46 45 41 39 37 35
64 62 60 58 58 57 55 54 53 57 71 85 90 91 89 87 86 85 82 79 76 73 68 65 64 64 63 63 62 61 59 57 54 52 49 47 46 42 45 45 42 40 38
63 62 62 60 59 59 58 56 53 50 54 69 84 92 93 89 88 86 85 82 80 77 74 69 66 66 65 64 63 63 61 59 57 55 53 50 48 45 42 46 46 44 43
51 53 56 58 59 58 59 59 56 52 49 53 67 85 94 94 90 87 86 84 83 82 78 75 71 68 67 66 65 64 63 61 60 58 56 54 51 47 44 42 49 50 48
45 45 46 48 52 54 56 60 60 55 52 49 52 67 86 95 94 90 87 85 83 82 80 78 75 72 70 69 68 66 65 63 61 60 59 56 55 52 47 44 45 53 52
45 44 44 44 44 47 51 56 60 58 54 51 48 52 70 89 96 93 88 87 85 82 79 77 75 74 72 72 71 69 67 65 63 62 60 59 56 55 50 50 44 51 55
46 46 44 44 44 43 46 51 56 58 55 52 49 47 55 75 93 97 93 88 86 81 77 72 71 73 72 72 74 73 70 68 66 65 63 60 58 55 54 51 48 47 54
45 45 44 43 43 43 43 46 52 55 54 51 49 48 49 60 82 96 97 92 88 83 76 71 70 70 72 73 74 75 73 71 69 67 64 61 60 57 55 52 51 49 49
44 44 43 42 41 41 41 42 46 51 53 50 48 47 47 51 66 88 98 97 92 88 81 72 71 69 69 70 72 74 74 72 71 69 66 63 61 60 57 54 51 50 48
46 45 43 41 39 38 39 40 42 46 50 48 45 44 43 45 52 72 91 98 97 92 88 81 75 73 69 66 65 70 73 73 72 71 68 65 63 61 59 56 54 52 50
45 43 41 40 37 35 37 38 40 42 45 45 43 40 39 41 44 55 75 91 97 96 91 87 83 79 75 69 62 64 69 71 72 72 71 68 65 62 59 58 56 55 54
45 42 40 39 37 33 34 36 38 38 40 43 41 39 37 37 40 45 57 75 89 95 93 89 87 84 80 76 68 65 65 65 67 70 71 69 67 65 62 60 59 58 57
47 45 43 40 38 34 32 33 35 35 36 40 41 39 37 36 37 41 47 60 75 88 92 90 88 86 84 81 75 71 68 64 63 64 66 67 67 66 64 63 62 60 60
52 49 48 45 40 35 31 30 31 32 33 37 39 39 37 36 36 37 42 50 63 76 85 87 85 85 84 82 78 74 72 68 65 63 62 62 63 65 64 63 62 60 59
56 55 51 45 39 34 30 29 29 29 30 34 38 39 37 36 35 35 38 44 54 65 74 79 81 81 81 81 79 75 73 71 68 65 63 61 60 61 63 63 62 60 59
61 57 49 40 33 29 27 27 27 27 27 31 35 38 38 35 35 35 36 38 46 55 64 70 73 75 76 78 78 76 74 72 68 65 63 62 61 60 61 62 63 62 60
61 51 39 28 23 23 23 24 26 26 25 29 33 36 37 36 35 35 35 36 40 46 53 60 65 69 72 75 76 76 75 73 69 67 63 62 62 60 59 59 60 62 63
57 43 28 16 13 18 21 23 25 24 24 27 32 35 37 37 36 37 37 36 38 41 46 51 56 60 64 69 71 72 73 71 68 66 65 62 62 62 60 58 58 58 58
51 36 21 8 9 15 19 21 22 21 21 25 31 35 36 38 38 38 38 38 38 39 42 46 49 51 55 59 62 66 68 68 67 65 63 62 63 62 62 60 58 58 57
46 31 17 5 8 13 17 19 18 18 19 24 31 35 36 37 39 39 39 39 39 40 41 43 44 46 48 51 55 60 64 65 65 64 63 63 63 63 64 63 62 60 58
44 30 17 5 6 11 14 16 15 16 19 24 31 36 38 38 38 38 39 39 39 40 41 40 40 41 41 44 48 52 56 60 63 64 64 62 61 63 64 64 63 63 64
Wind_Direction
281 277 272 268 265 262 258 255 253 253 253 252 251 248 246 244 243 242 241 239 235 234 233 233 234 235 236 237 237 235 235 235 236 238 238 238 238 236 232 230 228 227 228
278 276 273 269 265 260 256 253 250 249 249 249 248 247 245 243 243 242 240 239 235 234 233 233 232 234 235 236 235 233 235 235 234 237 237 236 235 234 232 229 226 226 228
277 274 273 271 269 265 258 252 248 246 245 245 244 244 243 241 241 240 240 238 235 232 233 233 232 233 235 234 233 233 234 233 233 235 236 234 233 232 231 229 227 226 227
277 276 274 273 271 269 264 257 249 244 242 242 240 240 240 239 238 238 238 238 236 232 231 232 231 232 234 234 233 232 233 232 232 233 235 234 232 230 230 230 229 228 227
280 279 277 275 273 270 266 260 251 244 240 239 238 237 237 237 237 237 238 238 236 233 231 230 230 230 232 234 233 232 231 231 232 232 234 234 232 231 228 228 227 226 225
282 280 277 274 272 269 267 263 255 244 239 236 236 235 234 235 236 235 236 237 236 233 230 229 230 229 229 232 233 232 231 231 232 232 233 233 234 232 225 225 225 223 222
282 279 276 273 270 266 263 262 260 252 242 236 234 233 232 231 232 233 233 233 234 233 230 229 229 229 229 229 231 232 231 232 233 231 232 234 236 236 227 224 225 223 221
284 280 275 271 268 263 258 257 258 256 251 243 237 233 231 229 229 230 231 231 231 232 231 228 228 228 228 228 229 231 231 231 232 231 231 234 237 240 235 225 224 224 222
292 285 279 273 268 263 255 251 253 255 254 251 244 236 231 228 227 227 229 230 230 230 230 228 227 227 227 227 227 229 230 230 230 230 230 234 237 239 241 235 227 224 223
300 293 287 279 270 264 256 249 248 252 253 252 251 244 235 229 226 224 226 227 228 229 230 230 228 226 226 227 226 227 228 229 229 230 230 232 236 238 240 240 234 224 223
303 298 292 286 277 267 258 251 247 248 251 250 251 251 243 234 227 223 222 224 225 226 228 229 229 227 226 226 226 226 227 228 229 230 231 232 234 235 236 236 237 228 223
303 299 294 288 282 273 262 253 247 246 247 249 249 253 250 240 231 225 220 221 223 222 224 225 227 227 227 226 226 227 226 227 228 230 231 231 231 232 233 232 233 232 227
307 302 297 291 284 276 267 257 249 245 244 247 249 252 256 247 236 228 222 218 220 219 219 219 221 224 225 226 226 227 227 227 228 230 231 231 230 231 231 231 230 232 233
314 310 305 297 287 277 269 261 253 246 243 244 248 251 255 253 239 230 224 218 217 218 217 215 218 221 222 224 226 227 228 227 228 230 231 231 231 231 231 231 232 233 235
317 315 311 305 294 280 269 261 255 247 242 242 245 249 252 252 242 231 225 220 216 215 217 214 215 218 219 219 222 226 227 227 227 228 229 230 230 231 232 233 234 235 236
320 318 316 311 303 287 272 262 253 248 243 241 242 245 248 248 242 232 226 222 218 215 215 216 216 218 219 217 216 221 225 226 227 227 228 229 229 230 231 233 234 236 238
321 319 317 315 310 297 280 266 253 246 242 240 239 240 242 242 240 232 225 223 220 216 214 215 217 218 219 218 217 219 222 225 227 228 228 229 230 230 231 233 234 236 238
321 318 315 313 311 304 289 272 254 242 238 237 236 236 236 237 237 232 224 221 221 218 215 214 217 219 220 220 220 221 222 224 226 228 229 230 230 231 232 234 236 238 239
321 316 312 309 305 302 292 277 257 240 233 232 232 232 232 232 233 230 224 219 219 219 217 215 216 219 221 222 222 222 223 225 226 228 229 230 230 230 230 232 234 237 238
320 315 309 303 298 294 287 275 260 242 230 226 226 227 228 228 227 226 223 219 216 218 218 218 217 219 221 222 223 223 224 225 226 227 229 230 231 231 230 230 232 234 235
321 316 309 299 290 284 277 268 259 244 229 221 219 221 223 224 222 221 222 219 215 215 217 219 219 219 220 222 224 224 225 226 227 228 229 230 232 233 232 231 231 232 234
327 323 315 300 282 269 261 256 253 243 227 217 213 214 217 218 217 217 217 216 214 212 213 217 219 220 221 222 224 225 227 228 229 229 230 231 232 233 233 233 233 233 235
335 333 326 307 266 251 247 245 245 239 225 214 208 208 211 213 213 213 213 213 212 211 210 212 215 218 220 222 224 226 228 229 230 231 232 232 233 233 233 232 232 233 233
342 342 338 314 239 237 239 242 242 236 222 210 204 203 206 209 210 210 210 209 209 209 209 209 211 214 216 220 223 226 228 228 229 229 230 232 232 233 234 233 233 235 236
349 349 347 322 227 231 238 243 240 230 217 206 201 199 202 206 208 208 208 208 207 207 206 207 207 208 209 212 215 221 224 226 226 227 227 228 231 231 232 232 232 232 232
357 357 355 334 236 234 241 247 242 227 213 205 201 198 198 201 205 207 208 208 208 208 207 207 207 207 208 209 211 214 218 221 222 222 222 222 223 227 229 231 232 233 232
Height
5682 5681 5680 5681 5683 5687 5691 5693 5697 5701 5706 5711 5715 5720 5726 5731 5736 5741 5746 5752 5759 5764 5770 5776 5782 5788 5793 5798 5803 5808 5813 5817 5821 5825 5829 5832 5836 5839 5842 5846 5849 5852 5856
5655 5653 5652 5653 5655 5660 5664 5667 5671 5677 5683 5689 5695 5701 5708 5714 5719 5724 5729 5735 5744 5751 5757 5763 5770 5776 5782 5788 5793 5798 5803 5808 5813 5817 5820 5825 5828 5832 5836 5840 5843 5847 5850
5626 5625 5625 5624 5626 5630 5634 5639 5644 5651 5658 5665 5673 5680 5687 5695 5702 5707 5711 5718 5727 5736 5743 5750 5757 5764 5770 5776 5782 5788 5793 5799 5804 5808 5812 5817 5821 5825 5830 5834 5838 5842 5845
5603 5602 5601 5600 5600 5601 5604 5610 5616 5624 5632 5639 5648 5656 5664 5673 5682 5690 5696 5703 5711 5721 5729 5736 5744 5751 5758 5764 5771 5777 5783 5789 5795 5799 5803 5808 5814 5818 5823 5827 5832 5836 5840
5584 5583 5581 5580 5579 5578 5579 5581 5587 5595 5604 5612 5622 5632 5641 5651 5661 5672 5681 5688 5696 5704 5714 5722 5730 5738 5745 5752 5760 5766 5772 5779 5785 5790 5795 5800 5805 5811 5815 5820 5825 5829 5834
5565 5563 5562 5561 5560 5559 5559 5558 5561 5567 5575 5584 5595 5607 5619 5630 5641 5651 5662 5672 5680 5689 5698 5707 5715 5723 5731 5739 5747 5755 5761 5768 5775 5781 5786 5791 5796 5801 5807 5813 5818 5822 5827
5544 5542 5541 5540 5540 5541 5540 5540 5541 5544 5549 5556 5568 5581 5594 5606 5618 5627 5639 5651 5662 5672 5681 5690 5700 5708 5717 5725 5733 5742 5750 5756 5764 5771 5777 5782 5787 5792 5798 5805 5810 5815 5820
5522 5519 5518 5517 5518 5520 5521 5522 5524 5526 5529 5533 5542 5554 5570 5585 5591 5607 5618 5629 5641 5652 5663 5674 5684 5693 5702 5711 5720 5728 5737 5744 5752 5760 5767 5772 5778 5783 5789 5795 5802 5807 5813
5502 5498 5496 5495 5495 5497 5500 5503 5506 5509 5513 5515 5519 5528 5543 5555 5570 5586 5597 5610 5620 5630 5643 5656 5667 5677 5686 5696 5705 5715 5723 5732 5740 5748 5756 5762 5768 5774 5780 5786 5792 5799 5804
5488 5483 5478 5475 5474 5475 5478 5482 5487 5491 5496 5499 5502 5506 5516 5529 5545 5562 5576 5588 5601 5614 5625 5638 5650 5661 5671 5681 5691 5701 5710 5719 5727 5735 5743 5751 5757 5764 5771 5777 5782 5788 5795
5475 5470 5465 5460 5457 5457 5458 5462 5467 5473 5478 5482 5486 5489 5495 5505 5519 5537 5554 5566 5579 5595 5608 5620 5633 5646 5656 5665 5675 5686 5696 5705 5714 5722 5730 5739 5746 5753 5759 5767 5771 5777 5784
5462 5456 5451 5447 5443 5441 5441 5443 5447 5453 5459 5464 5468 5472 5476 5483 5495 5511 5530 5545 5559 5576 5589 5603 5616 5630 5641 5650 5660 5670 5680 5691 5700 5708 5716 5725 5734 5740 5748 5755 5761 5766 5773
5448 5442 5437 5433 5429 5427 5425 5426 5429 5434 5440 5446 5451 5455 5458 5462 5471 5486 5506 5525 5539 5556 5570 5585 5598 5610 5623 5633 5643 5653 5665 5676 5685 5694 5703 5712 5721 5728 5736 5743 5750 5756 5762
5435 5429 5423 5418 5414 5412 5411 5411 5413 5417 5423 5429 5434 5438 5442 5444 5449 5461 5480 5501 5518 5534 5551 5567 5580 5592 5605 5616 5627 5637 5649 5660 5670 5680 5689 5699 5708 5717 5724 5732 5740 5746 5752
5424 5416 5409 5403 5399 5396 5396 5397 5398 5401 5407 5413 5418 5423 5426 5429 5431 5440 5455 5475 5496 5513 5531 5549 5563 5575 5586 5599 5611 5622 5633 5644 5655 5665 5675 5686 5695 5704 5713 5721 5728 5735 5741
5413 5405 5397 5391 5386 5382 5381 5381 5383 5387 5392 5398 5404 5409 5412 5415 5418 5423 5434 5452 5472 5493 5511 5530 5544 5557 5571 5584 5595 5605 5616 5627 5639 5650 5661 5672 5682 5691 5700 5708 5716 5723 5729
5402 5394 5387 5380 5374 5370 5367 5366 5369 5374 5379 5384 5390 5395 5400 5404 5408 5412 5420 5433 5451 5471 5492 5512 5525 5539 5553 5568 5580 5591 5601 5612 5623 5635 5646 5657 5668 5678 5687 5696 5703 5710 5717
5391 5382 5375 5368 5363 5358 5354 5353 5355 5361 5366 5371 5377 5383 5389 5394 5399 5403 5409 5419 5434 5452 5473 5493 5509 5523 5537 5551 5564 5576 5588 5599 5610 5620 5631 5643 5654 5665 5674 5683 5691 5698 5704
5379 5369 5361 5355 5350 5346 5342 5341 5342 5348 5354 5359 5366 5373 5379 5385 5390 5395 5401 5409 5421 5437 5456 5476 5493 5507 5522 5535 5549 5562 5573 5585 5596 5607 5618 5629 5640 5650 5660 5669 5677 5684 5691
5364 5353 5344 5338 5335 5333 5330 5329 5331 5336 5342 5348 5355 5362 5369 5375 5382 5387 5393 5400 5410 5425 5442 5460 5477 5491 5505 5519 5533 5547 5560 5571 5583 5594 5605 5616 5626 5636 5646 5656 5664 5672 5678
5345 5332 5323 5318 5318 5318 5318 5318 5320 5324 5331 5337 5344 5353 5360 5367 5374 5380 5387 5394 5403 5416 5430 5445 5461 5475 5489 5503 5518 5533 5545 5556 5569 5580 5592 5603 5614 5624 5632 5641 5649 5658 5666
5326 5311 5303 5301 5302 5304 5306 5308 5309 5315 5322 5328 5335 5344 5352 5360 5367 5374 5381 5388 5397 5407 5420 5433 5448 5461 5474 5489 5503 5516 5529 5543 5558 5570 5580 5589 5599 5609 5619 5629 5637 5645 5653
5310 5298 5291 5289 5291 5293 5296 5298 5301 5307 5314 5321 5328 5336 5344 5352 5360 5368 5375 5383 5391 5401 5411 5423 5436 5448 5462 5477 5492 5507 5517 5529 5542 5555 5567 5577 5587 5597 5607 5617 5624 5632 5640
5300 5290 5285 5283 5285 5287 5290 5293 5296 5301 5307 5314 5321 5328 5336 5344 5353 5361 5370 5378 5386 5395 5405 5416 5428 5440 5452 5465 5479 5491 5503 5515 5528 5540 5553 5564 5574 5585 5595 5604 5613 5621 5628
5295 5286 5282 5280 5282 5283 5286 5288 5291 5295 5301 5307 5313 5320 5328 5336 5345 5354 5364 5373 5381 5390 5399 5409 5419 5430 5441 5453 5464 5475 5487 5500 5512 5525 5537 5549 5559 5570 5580 5590 5600 5610 5619
5293 5285 5281 5279 5280 5281 5283 5285 5287 5291 5296 5301 5307 5313 5321 5329 5338 5347 5357 5367 5376 5385 5394 5403 5413 5422 5432 5441 5451 5461 5473 5486 5500 5512 5524 5535 5545 5555 5563 5573 5584 5595 5605